Location: Dompnac
(44.5644°N, 4.1026°E)
Time: 12:56:41
(UTC+00:00)

Cosmos 2026 Rocket - Pass Details

Date: 18 January 2021
Orbit: 940 x 1000 km, 82.9° (Epoch: 28 February)

Event Time Altitude Azimuth Distance (km) Brightness Sun altitude
Rises 18:43:26 0° 172° (S) 3,594 7.0 -22.8°
Reaches altitude 10° 18:45:56 10° 168° (SSE) 2,658 6.2 -23.2°
Maximum altitude 18:51:50 55° 92° (E) 1,134 3.9 -24.2°
Enters shadow 18:52:13 54° 77° (ENE) 1,147 3.9 -24.3°
